Time,TemperatureF,DewpointF,PressureIn,WindDirection,WindDirectionDegrees,WindSpeedMPH,WindSpeedGustMPH,Humidity,HourlyPrecipIn,Conditions,Clouds,dailyrainin,SoftwareType,DateUTC
2013-07-29 00:00:00,80.9,72.6,29.92,NNW,330,0.0,0.0,76,0.00,,CLR,0.00,VWS V14.01,2013-07-29 05:00:00,
2013-07-29 00:02:00,80.4,72.5,29.93,NW,325,0.0,4.0,77,0.00,,CLR,0.00,VWS V14.01,2013-07-29 05:02:00,
2013-07-29 00:07:00,80.4,72.5,29.93,NW,325,0.0,0.0,77,0.00,,CLR,0.00,VWS V14.01,2013-07-29 05:07:00,
2013-07-29 00:10:00,80.6,72.7,29.92,NNW,329,0.0,3.0,77,0.00,,CLR,0.00,VWS V14.01,2013-07-29 05:10:00,
2013-07-29 00:12:00,80.2,72.3,29.93,NW,325,0.0,1.0,77,0.00,,CLR,0.00,VWS V14.01,2013-07-29 05:12:00,
2013-07-29 00:17:00,80.2,72.7,29.93,NW,325,0.0,0.0,78,0.00,,CLR,0.00,VWS V14.01,2013-07-29 05:17:00,
2013-07-29 00:20:00,80.4,72.5,29.93,NW,325,0.0,4.0,77,0.00,,CLR,0.00,VWS V14.01,2013-07-29 05:20:00,
2013-07-29 00:22:00,80.0,72.5,29.93,NW,325,0.0,0.0,78,0.00,,BKN025,0.00,VWS V14.01,2013-07-29 05:22:00,
2013-07-29 00:27:00,79.8,72.7,29.93,NW,325,0.0,0.0,79,0.00,,BKN025,0.00,VWS V14.01,2013-07-29 05:27:00,
2013-07-29 00:30:00,80.2,72.7,29.93,NW,325,0.0,1.0,78,0.00,,CLR,0.00,VWS V14.01,2013-07-29 05:30:00,
2013-07-29 00:32:00,79.8,72.7,29.93,NW,325,0.0,1.0,79,0.00,,BKN025,0.00,VWS V14.01,2013-07-29 05:32:00,
2013-07-29 00:37:00,79.8,72.7,29.93,NW,325,0.0,0.0,79,0.00,,BKN025,0.00,VWS V14.01,2013-07-29 05:37:00,
2013-07-29 00:40:00,80.0,72.9,29.93,NW,325,0.0,0.0,79,0.00,,CLR,0.00,VWS V14.01,2013-07-29 05:40:00,
2013-07-29 00:42:00,79.8,72.7,29.93,NW,325,0.0,2.0,79,0.00,,BKN025,0.00,VWS V14.01,2013-07-29 05:42:00,
2013-07-29 00:47:00,79.8,72.7,29.94,NW,325,0.0,0.0,79,0.00,,BKN025,0.00,VWS V14.01,2013-07-29 05:47:00,
2013-07-29 00:50:00,79.8,72.7,29.93,NW,325,0.0,1.0,79,0.00,,CLR,0.00,VWS V14.01,2013-07-29 05:50:00,
2013-07-29 00:52:00,80.0,72.9,29.94,NW,325,0.0,4.0,79,0.00,,BKN025,0.00,VWS V14.01,2013-07-29 05:52:00,
2013-07-29 00:57:00,80.0,72.9,29.94,NW,325,2.0,2.0,79,0.00,,BKN025,0.00,VWS V14.01,2013-07-29 05:57:00,
2013-07-29 01:00:00,79.8,73.1,29.94,NW,325,0.0,3.0,80,0.00,,CLR,0.00,VWS V14.01,2013-07-29 06:00:00,
2013-07-29 01:02:00,80.0,72.9,29.94,NW,325,0.0,2.0,79,0.00,,OVC018,0.00,VWS V14.01,2013-07-29 06:02:00,
2013-07-29 01:07:00,80.0,72.9,29.94,NW,325,0.0,0.0,79,0.00,,OVC018,0.00,VWS V14.01,2013-07-29 06:07:00,
2013-07-29 01:10:00,80.0,72.9,29.94,NW,325,0.0,4.0,79,0.00,,CLR,0.00,VWS V14.01,2013-07-29 06:10:00,
2013-07-29 01:12:00,80.2,73.1,29.94,NW,325,0.0,2.0,79,0.00,,OVC018,0.00,VWS V14.01,2013-07-29 06:12:00,
2013-07-29 01:17:00,80.2,73.1,29.94,NW,325,0.0,0.0,79,0.00,,OVC018,0.00,VWS V14.01,2013-07-29 06:17:00,
2013-07-29 01:20:00,80.0,72.9,29.94,NW,325,0.0,2.0,79,0.00,,CLR,0.00,VWS V14.01,2013-07-29 06:20:00,
2013-07-29 01:22:00,80.2,73.1,29.94,NW,325,0.0,0.0,79,0.00,,OVC018,0.00,VWS V14.01,2013-07-29 06:22:00,
2013-07-29 01:27:00,80.2,73.1,29.94,NW,325,0.0,0.0,79,0.00,,OVC018,0.00,VWS V14.01,2013-07-29 06:27:00,
2013-07-29 01:30:00,80.2,73.1,29.94,NW,325,0.0,2.0,79,0.00,,CLR,0.00,VWS V14.01,2013-07-29 06:30:00,
2013-07-29 01:32:00,80.2,73.1,29.94,NW,325,0.0,0.0,79,0.00,,OVC018,0.00,VWS V14.01,2013-07-29 06:32:00,
2013-07-29 01:37:00,80.2,73.1,29.94,NW,325,0.0,0.0,79,0.00,,OVC018,0.00,VWS V14.01,2013-07-29 06:37:00,
2013-07-29 01:40:00,80.2,73.1,29.94,NW,325,0.0,0.0,79,0.00,,CLR,0.00,VWS V14.01,2013-07-29 06:40:00,
2013-07-29 01:42:00,80.2,73.1,29.94,NW,325,0.0,1.0,79,0.00,,OVC018,0.00,VWS V14.01,2013-07-29 06:42:00,
2013-07-29 01:47:00,80.2,73.1,29.93,NNW,329,0.0,4.0,79,0.00,,OVC018,0.00,VWS V14.01,2013-07-29 06:47:00,
2013-07-29 01:50:00,80.2,73.1,29.94,NW,325,0.0,0.0,79,0.00,,CLR,0.00,VWS V14.01,2013-07-29 06:50:00,
2013-07-29 01:52:00,80.2,73.1,29.93,NNW,327,0.0,4.0,79,0.00,,OVC018,0.00,VWS V14.01,2013-07-29 06:52:00,
2013-07-29 01:57:00,80.4,73.3,29.93,NNW,327,0.0,0.0,79,0.00,,OVC018,0.00,VWS V14.01,2013-07-29 06:57:00,
2013-07-29 02:00:00,80.2,73.1,29.93,NW,325,0.0,1.0,79,0.00,,CLR,0.00,VWS V14.01,2013-07-29 07:00:00,
2013-07-29 02:02:00,80.4,73.3,29.94,NNW,327,0.0,1.0,79,0.00,,OVC022,0.00,VWS V14.01,2013-07-29 07:02:00,
2013-07-29 02:07:00,80.4,73.3,29.94,NNW,327,0.0,0.0,79,0.00,,OVC022,0.00,VWS V14.01,2013-07-29 07:07:00,
2013-07-29 02:10:00,80.4,73.3,29.93,NNW,327,0.0,4.0,79,0.00,,CLR,0.00,VWS V14.01,2013-07-29 07:10:00,
2013-07-29 02:13:00,80.4,72.9,29.94,NNW,327,0.0,1.0,78,0.00,,OVC022,0.00,VWS V14.01,2013-07-29 07:13:00,
2013-07-29 02:18:00,80.4,73.3,29.94,NNW,327,0.0,0.0,79,0.00,,OVC022,0.00,VWS V14.01,2013-07-29 07:18:00,
2013-07-29 02:20:00,80.4,73.3,29.94,NNW,327,0.0,1.0,79,0.00,,CLR,0.00,VWS V14.01,2013-07-29 07:20:00,
2013-07-29 02:23:00,80.4,73.3,29.94,NNW,327,0.0,3.0,79,0.00,,OVC022,0.00,VWS V14.01,2013-07-29 07:23:00,
2013-07-29 02:28:00,80.4,72.9,29.94,NNW,327,0.0,1.0,78,0.00,,OVC022,0.00,VWS V14.01,2013-07-29 07:28:00,
2013-07-29 02:30:00,80.4,73.3,29.94,NNW,327,0.0,1.0,79,0.00,,CLR,0.00,VWS V14.01,2013-07-29 07:30:00,
2013-07-29 02:33:00,80.4,72.9,29.94,North,5,0.0,4.0,78,0.00,,OVC022,0.00,VWS V14.01,2013-07-29 07:33:00,
2013-07-29 02:38:00,80.4,72.9,29.94,North,5,0.0,0.0,78,0.00,,OVC022,0.00,VWS V14.01,2013-07-29 07:38:00,
2013-07-29 02:40:00,80.4,72.9,29.94,NNW,327,0.0,3.0,78,0.00,,CLR,0.00,VWS V14.01,2013-07-29 07:40:00,
2013-07-29 02:43:00,80.4,72.5,29.94,North,5,0.0,3.0,77,0.00,,OVC022,0.00,VWS V14.01,2013-07-29 07:43:00,
2013-07-29 02:48:00,80.4,72.5,29.95,North,5,0.0,0.0,77,0.00,,OVC022,0.00,VWS V14.01,2013-07-29 07:48:00,
2013-07-29 02:50:00,80.4,72.9,29.94,North,5,0.0,4.0,78,0.00,,CLR,0.00,VWS V14.01,2013-07-29 07:50:00,
2013-07-29 02:53:00,80.4,72.5,29.95,North,5,0.0,0.0,77,0.00,,OVC022,0.00,VWS V14.01,2013-07-29 07:53:00,
2013-07-29 02:58:00,80.4,72.5,29.95,North,5,0.0,0.0,77,0.00,,OVC022,0.00,VWS V14.01,2013-07-29 07:58:00,
2013-07-29 03:00:00,80.4,72.5,29.95,North,5,0.0,3.0,77,0.00,,CLR,0.00,VWS V14.01,2013-07-29 08:00:00,
2013-07-29 03:03:00,80.2,72.3,29.95,North,5,0.0,0.0,77,0.00,,OVC026,0.00,VWS V14.01,2013-07-29 08:03:00,
2013-07-29 03:08:00,80.2,72.3,29.95,North,5,0.0,0.0,77,0.00,,OVC026,0.00,VWS V14.01,2013-07-29 08:08:00,
2013-07-29 03:10:00,80.4,72.5,29.95,North,5,0.0,1.0,77,0.00,,CLR,0.00,VWS V14.01,2013-07-29 08:10:00,
2013-07-29 03:13:00,80.2,72.3,29.95,North,5,0.0,0.0,77,0.00,,OVC026,0.00,VWS V14.01,2013-07-29 08:13:00,
2013-07-29 03:18:00,80.2,72.3,29.95,North,5,0.0,0.0,77,0.00,,OVC026,0.00,VWS V14.01,2013-07-29 08:18:00,
2013-07-29 03:20:00,80.2,72.3,29.95,North,5,0.0,0.0,77,0.00,,CLR,0.00,VWS V14.01,2013-07-29 08:20:00,
2013-07-29 03:23:00,80.0,72.2,29.95,North,5,0.0,1.0,77,0.00,,OVC026,0.00,VWS V14.01,2013-07-29 08:23:00,
2013-07-29 03:28:00,80.0,72.2,29.95,North,5,0.0,0.0,77,0.00,,OVC026,0.00,VWS V14.01,2013-07-29 08:28:00,
2013-07-29 03:30:00,80.2,72.3,29.95,North,5,0.0,0.0,77,0.00,,CLR,0.00,VWS V14.01,2013-07-29 08:30:00,
2013-07-29 03:33:00,80.0,72.2,29.95,North,5,2.0,3.0,77,0.00,,OVC026,0.00,VWS V14.01,2013-07-29 08:33:00,
2013-07-29 03:38:00,79.8,71.9,29.95,North,5,0.0,0.0,77,0.00,,OVC026,0.00,VWS V14.01,2013-07-29 08:38:00,
2013-07-29 03:40:00,80.0,72.2,29.95,North,5,0.0,2.0,77,0.00,,CLR,0.00,VWS V14.01,2013-07-29 08:40:00,
2013-07-29 03:43:00,79.8,71.9,29.95,North,5,0.0,0.0,77,0.00,,OVC026,0.00,VWS V14.01,2013-07-29 08:43:00,
2013-07-29 03:48:00,79.8,71.9,29.95,North,5,1.0,2.0,77,0.00,,OVC026,0.00,VWS V14.01,2013-07-29 08:48:00,
2013-07-29 03:50:00,79.8,71.9,29.95,North,5,0.0,3.0,77,0.00,,CLR,0.00,VWS V14.01,2013-07-29 08:50:00,
2013-07-29 03:53:00,79.8,71.9,29.95,North,5,1.0,2.0,77,0.00,,OVC026,0.00,VWS V14.01,2013-07-29 08:53:00,
2013-07-29 03:58:00,79.6,71.8,29.95,North,5,0.0,0.0,77,0.00,,OVC026,0.00,VWS V14.01,2013-07-29 08:58:00,
2013-07-29 04:00:00,79.8,71.9,29.95,North,5,0.0,1.0,77,0.00,,CLR,0.00,VWS V14.01,2013-07-29 09:00:00,
2013-07-29 04:03:00,79.6,71.8,29.95,North,5,0.0,0.0,77,0.00,,OVC031,0.00,VWS V14.01,2013-07-29 09:03:00,
2013-07-29 04:08:00,79.6,71.8,29.95,North,5,0.0,0.0,77,0.00,,OVC031,0.00,VWS V14.01,2013-07-29 09:08:00,
2013-07-29 04:10:00,79.6,71.8,29.95,North,5,0.0,2.0,77,0.00,,CLR,0.00,VWS V14.01,2013-07-29 09:10:00,
2013-07-29 04:13:00,79.6,71.8,29.95,North,5,0.0,1.0,77,0.00,,OVC031,0.00,VWS V14.01,2013-07-29 09:13:00,
2013-07-29 04:18:00,79.6,71.8,29.95,North,5,0.0,0.0,77,0.00,,OVC031,0.00,VWS V14.01,2013-07-29 09:18:00,
2013-07-29 04:20:00,79.6,71.8,29.95,North,5,0.0,0.0,77,0.00,,CLR,0.00,VWS V14.01,2013-07-29 09:20:00,
2013-07-29 04:23:00,79.4,71.6,29.95,North,5,2.0,2.0,77,0.00,,OVC031,0.00,VWS V14.01,2013-07-29 09:23:00,
2013-07-29 04:28:00,79.4,71.6,29.95,North,5,0.0,0.0,77,0.00,,OVC031,0.00,VWS V14.01,2013-07-29 09:28:00,
2013-07-29 04:30:00,79.6,71.8,29.95,North,5,0.0,2.0,77,0.00,,CLR,0.00,VWS V14.01,2013-07-29 09:30:00,
2013-07-29 04:33:00,79.4,71.6,29.95,WNW,285,0.0,6.0,77,0.00,,OVC031,0.00,VWS V14.01,2013-07-29 09:33:00,
2013-07-29 04:38:00,79.3,71.8,29.95,West,281,2.0,2.0,78,0.00,,OVC031,0.00,VWS V14.01,2013-07-29 09:38:00,
2013-07-29 04:40:00,79.4,71.6,29.95,North,5,0.0,3.0,77,0.00,,CLR,0.00,VWS V14.01,2013-07-29 09:40:00,
2013-07-29 04:43:00,79.1,71.7,29.95,West,281,0.0,2.0,78,0.00,,OVC031,0.00,VWS V14.01,2013-07-29 09:43:00,
2013-07-29 04:48:00,79.1,71.7,29.95,West,281,1.0,1.0,78,0.00,,OVC031,0.00,VWS V14.01,2013-07-29 09:48:00,
2013-07-29 04:50:00,79.3,71.5,29.95,WNW,285,0.0,6.0,77,0.00,,CLR,0.00,VWS V14.01,2013-07-29 09:50:00,
2013-07-29 04:53:00,78.9,71.8,29.95,West,281,1.0,1.0,79,0.00,,OVC031,0.00,VWS V14.01,2013-07-29 09:53:00,
2013-07-29 04:58:00,78.7,71.6,29.95,West,281,0.0,2.0,79,0.00,,OVC031,0.00,VWS V14.01,2013-07-29 09:58:00,
2013-07-29 05:00:00,79.1,71.7,29.95,West,281,0.0,2.0,78,0.00,,CLR,0.00,VWS V14.01,2013-07-29 10:00:00,
2013-07-29 05:03:00,78.7,71.6,29.95,NW,309,0.0,3.0,79,0.00,,OVC031,0.00,VWS V14.01,2013-07-29 10:03:00,
2013-07-29 05:08:00,78.7,72.0,29.95,NW,309,0.0,0.0,80,0.00,,OVC031,0.00,VWS V14.01,2013-07-29 10:08:00,
2013-07-29 05:10:00,78.7,71.6,29.95,West,281,2.0,2.0,79,0.00,,CLR,0.00,VWS V14.01,2013-07-29 10:10:00,
2013-07-29 05:14:00,78.5,71.8,29.95,NW,309,0.0,1.0,80,0.00,,OVC031,0.00,VWS V14.01,2013-07-29 10:14:00,
2013-07-29 05:19:00,78.5,71.8,29.96,NW,309,0.0,0.0,80,0.00,,OVC031,0.00,VWS V14.01,2013-07-29 10:19:00,
2013-07-29 05:20:00,78.7,72.0,29.95,NW,309,0.0,3.0,80,0.00,,CLR,0.00,VWS V14.01,2013-07-29 10:20:00,
2013-07-29 05:24:00,78.5,71.8,29.96,NW,309,0.0,0.0,80,0.00,,OVC031,0.00,VWS V14.01,2013-07-29 10:24:00,
2013-07-29 05:29:00,78.5,72.2,29.96,NW,309,0.0,0.0,81,0.00,,OVC031,0.00,VWS V14.01,2013-07-29 10:29:00,
2013-07-29 05:30:00,78.5,71.8,29.96,NW,309,0.0,1.0,80,0.00,,CLR,0.00,VWS V14.01,2013-07-29 10:30:00,
2013-07-29 05:35:00,78.3,72.0,29.96,NW,309,0.0,2.0,81,0.00,,OVC031,0.00,VWS V14.01,2013-07-29 10:35:00,
2013-07-29 05:40:00,78.3,72.0,29.96,NW,309,0.0,1.0,81,0.00,,OVC031,0.00,VWS V14.01,2013-07-29 10:40:00,
2013-07-29 05:45:00,78.3,72.4,29.96,NW,309,1.0,1.0,82,0.00,,OVC031,0.00,VWS V14.01,2013-07-29 10:45:00,
2013-07-29 05:50:00,78.3,72.4,29.96,NW,309,0.0,0.0,82,0.00,,OVC031,0.00,VWS V14.01,2013-07-29 10:50:00,
2013-07-29 05:55:00,78.3,72.4,29.96,NW,309,0.0,0.0,82,0.00,,OVC031,0.00,VWS V14.01,2013-07-29 10:55:00,
2013-07-29 06:00:00,78.1,72.2,29.96,NW,309,0.0,0.0,82,0.00,,BKN025,0.00,VWS V14.01,2013-07-29 11:00:00,
2013-07-29 06:05:00,78.1,72.5,29.95,NW,309,0.0,0.0,83,0.00,,BKN025,0.00,VWS V14.01,2013-07-29 11:05:00,
2013-07-29 06:10:00,78.0,72.4,29.95,NW,309,0.0,0.0,83,0.00,,BKN025,0.00,VWS V14.01,2013-07-29 11:10:00,
2013-07-29 06:16:00,77.8,72.2,29.96,NW,309,0.0,0.0,83,0.00,,BKN025,0.00,VWS V14.01,2013-07-29 11:16:00,
2013-07-29 06:20:00,78.0,72.4,29.95,NW,309,0.0,0.0,83,0.00,,CLR,0.00,VWS V14.01,2013-07-29 11:20:00,
2013-07-29 06:21:00,77.6,72.4,29.96,NW,309,0.0,4.0,84,0.00,,BKN025,0.00,VWS V14.01,2013-07-29 11:21:00,
2013-07-29 06:27:00,77.6,72.4,29.96,NW,309,0.0,0.0,84,0.00,,BKN025,0.00,VWS V14.01,2013-07-29 11:27:00,
2013-07-29 06:30:00,77.8,72.2,29.96,NW,309,0.0,0.0,83,0.00,,CLR,0.00,VWS V14.01,2013-07-29 11:30:00,
2013-07-29 06:32:00,77.4,72.5,29.97,WSW,256,0.0,5.0,85,0.00,,BKN025,0.00,VWS V14.01,2013-07-29 11:32:00,
2013-07-29 06:37:00,77.2,72.3,29.97,WSW,256,0.0,5.0,85,0.00,,BKN025,0.00,VWS V14.01,2013-07-29 11:37:00,
2013-07-29 06:40:00,77.6,72.4,29.96,NW,309,0.0,4.0,84,0.00,,CLR,0.00,VWS V14.01,2013-07-29 11:40:00,
2013-07-29 06:42:00,77.2,72.3,29.97,WSW,256,0.0,0.0,85,0.00,,BKN025,0.00,VWS V14.01,2013-07-29 11:42:00,
2013-07-29 06:47:00,77.1,72.2,29.97,WSW,256,0.0,0.0,85,0.00,,BKN025,0.00,VWS V14.01,2013-07-29 11:47:00,
2013-07-29 06:50:00,77.2,72.3,29.97,WSW,256,0.0,5.0,85,0.00,,CLR,0.00,VWS V14.01,2013-07-29 11:50:00,
2013-07-29 06:52:00,76.9,72.4,29.97,WSW,256,0.0,0.0,86,0.00,,BKN025,0.00,VWS V14.01,2013-07-29 11:52:00,
2013-07-29 06:57:00,76.9,72.4,29.97,WSW,256,0.0,0.0,86,0.00,,BKN025,0.00,VWS V14.01,2013-07-29 11:57:00,
2013-07-29 07:00:00,77.1,72.2,29.97,WSW,256,0.0,0.0,85,0.00,,CLR,0.00,VWS V14.01,2013-07-29 12:00:00,
2013-07-29 07:02:00,76.7,72.2,29.98,WSW,256,0.0,0.0,86,0.00,,OVC023,0.00,VWS V14.01,2013-07-29 12:02:00,
2013-07-29 07:07:00,76.7,72.5,29.98,WSW,256,0.0,0.0,87,0.00,,OVC023,0.00,VWS V14.01,2013-07-29 12:07:00,
2013-07-29 07:10:00,76.9,72.4,29.97,WSW,256,0.0,0.0,86,0.00,,CLR,0.00,VWS V14.01,2013-07-29 12:10:00,
2013-07-29 07:12:00,76.7,72.5,29.98,WSW,256,0.0,0.0,87,0.00,,,0.00,VWS V14.01,2013-07-29 12:12:00,
2013-07-29 07:18:00,76.7,72.5,29.98,WSW,256,0.0,0.0,87,0.00,,,0.00,VWS V14.01,2013-07-29 12:18:00,
2013-07-29 07:20:00,76.7,72.2,29.98,WSW,256,0.0,0.0,86,0.00,,CLR,0.00,VWS V14.01,2013-07-29 12:20:00,
2013-07-29 07:23:00,76.5,72.3,29.98,WSW,256,0.0,0.0,87,0.00,,,0.00,VWS V14.01,2013-07-29 12:23:00,
2013-07-29 07:28:00,76.7,72.5,29.98,WSW,256,0.0,0.0,87,0.00,,,0.00,VWS V14.01,2013-07-29 12:28:00,
2013-07-29 07:30:00,76.7,72.5,29.98,WSW,256,0.0,0.0,87,0.00,,CLR,0.00,VWS V14.01,2013-07-29 12:30:00,
2013-07-29 07:33:00,76.7,72.9,29.99,WSW,256,0.0,1.0,88,0.00,,,0.00,VWS V14.01,2013-07-29 12:33:00,
2013-07-29 07:38:00,76.7,72.9,29.99,WSW,256,0.0,0.0,88,0.00,,,0.00,VWS V14.01,2013-07-29 12:38:00,
2013-07-29 07:40:00,76.7,72.5,29.98,WSW,256,0.0,0.0,87,0.00,,CLR,0.00,VWS V14.01,2013-07-29 12:40:00,
2013-07-29 07:43:00,76.9,73.1,29.99,WSW,256,0.0,0.0,88,0.00,,,0.00,VWS V14.01,2013-07-29 12:43:00,
2013-07-29 07:48:00,77.1,73.3,30.00,WSW,256,0.0,0.0,88,0.00,,,0.00,VWS V14.01,2013-07-29 12:48:00,
2013-07-29 07:50:00,76.7,72.9,29.99,WSW,256,0.0,1.0,88,0.00,,CLR,0.00,VWS V14.01,2013-07-29 12:50:00,
2013-07-29 07:53:00,77.2,73.0,30.00,WSW,256,0.0,0.0,87,0.00,,,0.00,VWS V14.01,2013-07-29 12:53:00,
2013-07-29 07:58:00,77.2,73.0,30.00,WSW,258,0.0,1.0,87,0.00,,,0.00,VWS V14.01,2013-07-29 12:58:00,
2013-07-29 08:00:00,77.1,73.3,30.00,WSW,256,0.0,0.0,88,0.00,,CLR,0.00,VWS V14.01,2013-07-29 13:00:00,
2013-07-29 08:03:00,77.4,72.9,30.00,WSW,258,0.0,1.0,86,0.00,,BKN023,0.00,VWS V14.01,2013-07-29 13:03:00,
2013-07-29 08:08:00,77.6,73.1,30.00,WNW,284,0.0,0.0,86,0.00,,BKN023,0.00,VWS V14.01,2013-07-29 13:08:00,
2013-07-29 08:10:00,77.2,73.0,30.00,WSW,255,0.0,0.0,87,0.00,,CLR,0.00,VWS V14.01,2013-07-29 13:10:00,
2013-07-29 08:13:00,77.8,73.3,30.00,WNW,284,0.0,0.0,86,0.00,,BKN023,0.00,VWS V14.01,2013-07-29 13:13:00,
2013-07-29 08:19:00,78.0,73.1,30.00,WNW,284,0.0,0.0,85,0.00,,BKN023,0.00,VWS V14.01,2013-07-29 13:19:00,
2013-07-29 08:20:00,77.6,73.1,30.00,WNW,284,0.0,4.0,86,0.00,,CLR,0.00,VWS V14.01,2013-07-29 13:20:00,
2013-07-29 08:24:00,78.1,73.2,30.00,WNW,284,0.0,0.0,85,0.00,,BKN023,0.00,VWS V14.01,2013-07-29 13:24:00,
2013-07-29 08:29:00,78.1,72.9,30.00,WNW,284,0.0,1.0,84,0.00,,BKN023,0.00,VWS V14.01,2013-07-29 13:29:00,
2013-07-29 08:30:00,77.8,72.9,30.00,WNW,284,0.0,1.0,85,0.00,,CLR,0.00,VWS V14.01,2013-07-29 13:30:00,
2013-07-29 08:34:00,78.3,73.1,30.00,WNW,284,0.0,3.0,84,0.00,,BKN023,0.00,VWS V14.01,2013-07-29 13:34:00,
2013-07-29 08:40:00,78.3,72.7,30.00,WNW,284,0.0,0.0,83,0.00,,BKN023,0.00,VWS V14.01,2013-07-29 13:40:00,
2013-07-29 08:45:00,78.7,73.1,30.00,WNW,286,0.0,3.0,83,0.00,,BKN023,0.00,VWS V14.01,2013-07-29 13:45:00,
2013-07-29 08:50:00,79.1,72.8,30.01,WNW,284,0.0,1.0,81,0.00,,BKN023,0.00,VWS V14.01,2013-07-29 13:50:00,
2013-07-29 08:55:00,79.4,72.7,30.01,WNW,284,0.0,1.0,80,0.00,,BKN023,0.00,VWS V14.01,2013-07-29 13:55:00,
2013-07-29 09:00:00,78.7,72.8,30.01,WNW,284,0.0,3.0,82,0.00,,CLR,0.00,VWS V14.01,2013-07-29 14:00:00,
2013-07-29 09:01:00,79.8,72.7,30.01,WNW,284,0.0,1.0,79,0.00,,BKN020,0.00,VWS V14.01,2013-07-29 14:01:00,
2013-07-29 09:06:00,80.4,72.9,30.01,WNW,284,0.0,1.0,78,0.00,,BKN020,0.00,VWS V14.01,2013-07-29 14:06:00,
2013-07-29 09:10:00,79.4,72.3,30.01,WNW,284,0.0,1.0,79,0.00,,CLR,0.00,VWS V14.01,2013-07-29 14:10:00,
2013-07-29 09:11:00,80.9,72.2,30.01,WNW,284,0.0,1.0,75,0.00,,BKN020,0.00,VWS V14.01,2013-07-29 14:11:00,
2013-07-29 09:16:00,81.5,72.4,30.01,WNW,290,0.0,2.0,74,0.00,,BKN020,0.00,VWS V14.01,2013-07-29 14:16:00,
2013-07-29 09:20:00,80.4,72.9,30.01,WNW,284,0.0,1.0,78,0.00,,CLR,0.00,VWS V14.01,2013-07-29 14:20:00,
2013-07-29 09:21:00,82.3,72.0,30.01,NW,313,1.0,3.0,71,0.00,,BKN020,0.00,VWS V14.01,2013-07-29 14:21:00,
2013-07-29 09:26:00,82.5,70.9,30.01,NW,306,0.0,3.0,68,0.00,,BKN020,0.00,VWS V14.01,2013-07-29 14:26:00,
2013-07-29 09:30:00,81.7,72.2,30.01,WNW,290,0.0,2.0,73,0.00,,CLR,0.00,VWS V14.01,2013-07-29 14:30:00,
2013-07-29 09:31:00,82.7,71.1,30.01,WSW,244,0.0,3.0,68,0.00,,FEW020,0.00,VWS V14.01,2013-07-29 14:31:00,
2013-07-29 09:36:00,82.9,70.8,30.01,WNW,286,0.0,5.0,67,0.00,,FEW020,0.00,VWS V14.01,2013-07-29 14:36:00,
2013-07-29 09:40:00,82.5,70.9,30.01,NW,306,0.0,3.0,68,0.00,,CLR,0.00,VWS V14.01,2013-07-29 14:40:00,
2013-07-29 09:41:00,83.1,71.0,30.01,WNW,286,0.0,0.0,67,0.00,,FEW020,0.00,VWS V14.01,2013-07-29 14:41:00,
2013-07-29 09:46:00,83.5,70.9,30.01,WNW,286,0.0,1.0,66,0.00,,FEW020,0.00,VWS V14.01,2013-07-29 14:46:00,
2013-07-29 09:50:00,82.9,70.8,30.01,WNW,286,0.0,5.0,67,0.00,,CLR,0.00,VWS V14.01,2013-07-29 14:50:00,
2013-07-29 09:52:00,83.6,71.5,30.01,SSW,202,1.0,3.0,67,0.00,,FEW020,0.00,VWS V14.01,2013-07-29 14:52:00,
2013-07-29 09:57:00,83.8,70.8,30.01,SSW,202,0.0,0.0,65,0.00,,FEW020,0.00,VWS V14.01,2013-07-29 14:57:00,
2013-07-29 10:00:00,83.5,70.9,30.01,WNW,286,0.0,1.0,66,0.00,,CLR,0.00,VWS V14.01,2013-07-29 15:00:00,
2013-07-29 10:02:00,84.2,70.7,30.01,South,187,0.0,1.0,64,0.00,,FEW024,0.00,VWS V14.01,2013-07-29 15:02:00,
2013-07-29 10:07:00,84.8,70.8,30.01,SW,223,0.0,0.0,63,0.00,,FEW024,0.00,VWS V14.01,2013-07-29 15:07:00,
2013-07-29 10:10:00,83.8,70.8,30.01,SSW,202,0.0,3.0,65,0.00,,CLR,0.00,VWS V14.01,2013-07-29 15:10:00,
2013-07-29 10:12:00,85.2,70.2,30.01,SW,225,0.0,2.0,61,0.00,,FEW024,0.00,VWS V14.01,2013-07-29 15:12:00,
2013-07-29 10:17:00,85.4,71.4,30.01,NW,313,0.0,0.0,63,0.00,,FEW024,0.00,VWS V14.01,2013-07-29 15:17:00,
2013-07-29 10:20:00,84.8,70.8,30.01,SW,223,0.0,3.0,63,0.00,,CLR,0.00,VWS V14.01,2013-07-29 15:20:00,
2013-07-29 10:22:00,85.8,70.3,30.01,NNW,338,0.0,3.0,60,0.00,,FEW024,0.00,VWS V14.01,2013-07-29 15:22:00,
2013-07-29 10:27:00,86.0,70.5,30.01,NNW,338,0.0,1.0,60,0.00,,FEW024,0.00,VWS V14.01,2013-07-29 15:27:00,
2013-07-29 10:30:00,85.4,71.4,30.01,NW,313,0.0,3.0,63,0.00,,CLR,0.00,VWS V14.01,2013-07-29 15:30:00,
2013-07-29 10:32:00,86.5,70.0,30.01,WSW,245,0.0,3.0,58,0.00,,FEW024,0.00,VWS V14.01,2013-07-29 15:32:00,
2013-07-29 10:38:00,86.5,70.0,30.01,NNW,348,0.0,2.0,58,0.00,,FEW024,0.00,VWS V14.01,2013-07-29 15:38:00,
2013-07-29 10:40:00,86.0,70.0,30.01,NNW,338,0.0,3.0,59,0.00,,CLR,0.00,VWS V14.01,2013-07-29 15:40:00,
2013-07-29 10:43:00,86.7,71.7,30.01,NNW,348,0.0,2.0,61,0.00,,FEW024,0.00,VWS V14.01,2013-07-29 15:43:00,
2013-07-29 10:48:00,87.1,70.0,30.01,North,350,0.0,1.0,57,0.00,,FEW024,0.00,VWS V14.01,2013-07-29 15:48:00,
2013-07-29 10:50:00,86.5,70.5,30.01,NNW,348,0.0,6.0,59,0.00,,CLR,0.00,VWS V14.01,2013-07-29 15:50:00,
2013-07-29 10:53:00,87.3,69.7,30.01,WNW,286,0.0,4.0,56,0.00,,FEW024,0.00,VWS V14.01,2013-07-29 15:53:00,
2013-07-29 10:58:00,87.3,69.7,30.01,NW,309,1.0,4.0,56,0.00,,FEW024,0.00,VWS V14.01,2013-07-29 15:58:00,
2013-07-29 11:00:00,86.9,69.8,30.01,North,350,0.0,2.0,57,0.00,,CLR,0.00,VWS V14.01,2013-07-29 16:00:00,
2013-07-29 11:03:00,87.5,70.4,30.02,NW,324,0.0,4.0,57,0.00,,CLR,0.00,VWS V14.01,2013-07-29 16:03:00,
2013-07-29 11:08:00,87.7,69.0,30.02,South,180,0.0,2.0,54,0.00,,CLR,0.00,VWS V14.01,2013-07-29 16:08:00,
2013-07-29 11:10:00,87.3,69.2,30.01,SSW,203,1.0,4.0,55,0.00,,CLR,0.00,VWS V14.01,2013-07-29 16:10:00,
2013-07-29 11:13:00,87.9,70.3,30.02,South,180,0.0,2.0,56,0.00,,CLR,0.00,VWS V14.01,2013-07-29 16:13:00,
2013-07-29 11:18:00,88.3,70.1,30.01,South,182,1.0,1.0,55,0.00,,CLR,0.00,VWS V14.01,2013-07-29 16:18:00,
2013-07-29 11:20:00,87.7,69.5,30.02,South,180,2.0,5.0,55,0.00,,CLR,0.00,VWS V14.01,2013-07-29 16:20:00,
2013-07-29 11:23:00,88.5,70.3,30.01,WNW,294,0.0,4.0,55,0.00,,CLR,0.00,VWS V14.01,2013-07-29 16:23:00,
2013-07-29 11:28:00,89.0,68.0,30.01,North,355,0.0,1.0,50,0.00,,CLR,0.00,VWS V14.01,2013-07-29 16:28:00,
2013-07-29 11:30:00,88.3,69.0,30.01,South,182,0.0,3.0,53,0.00,,CLR,0.00,VWS V14.01,2013-07-29 16:30:00,
2013-07-29 11:33:00,89.4,70.0,30.01,North,355,0.0,2.0,53,0.00,,CLR,0.00,VWS V14.01,2013-07-29 16:33:00,
2013-07-29 11:39:00,89.6,70.8,30.01,ENE,58,0.0,0.0,54,0.00,,CLR,0.00,VWS V14.01,2013-07-29 16:39:00,
2013-07-29 11:40:00,88.8,67.8,30.01,North,355,1.0,4.0,50,0.00,,CLR,0.00,VWS V14.01,2013-07-29 16:40:00,
2013-07-29 11:44:00,90.0,68.9,30.01,SE,146,0.0,4.0,50,0.00,,CLR,0.00,VWS V14.01,2013-07-29 16:44:00,
2013-07-29 11:49:00,90.5,69.3,30.01,SW,227,0.0,2.0,50,0.00,,CLR,0.00,VWS V14.01,2013-07-29 16:49:00,
2013-07-29 11:50:00,89.4,68.3,30.01,ENE,58,0.0,4.0,50,0.00,,CLR,0.00,VWS V14.01,2013-07-29 16:50:00,
2013-07-29 11:54:00,90.9,70.3,30.01,SW,221,0.0,2.0,51,0.00,,CLR,0.00,VWS V14.01,2013-07-29 16:54:00,
2013-07-29 11:59:00,91.1,67.5,30.01,NW,315,2.0,3.0,46,0.00,,CLR,0.00,VWS V14.01,2013-07-29 16:59:00,
2013-07-29 12:00:00,90.5,68.8,30.01,SW,225,0.0,4.0,49,0.00,,CLR,0.00,VWS V14.01,2013-07-29 17:00:00,
2013-07-29 12:05:00,91.3,69.5,30.01,NW,315,0.0,3.0,49,0.00,,CLR,0.00,VWS V14.01,2013-07-29 17:05:00,
2013-07-29 12:10:00,91.8,69.9,30.01,NW,315,1.0,2.0,49,0.00,,CLR,0.00,VWS V14.01,2013-07-29 17:10:00,
2013-07-29 12:15:00,92.0,68.3,30.01,SSE,160,1.0,3.0,46,0.00,,CLR,0.00,VWS V14.01,2013-07-29 17:15:00,
2013-07-29 12:20:00,92.4,68.6,30.01,NNW,329,1.0,4.0,46,0.00,,CLR,0.00,VWS V14.01,2013-07-29 17:20:00,
2013-07-29 12:25:00,92.4,67.3,30.01,NW,326,1.0,4.0,44,0.00,,CLR,0.00,VWS V14.01,2013-07-29 17:25:00,
2013-07-29 12:30:00,92.4,66.7,30.01,SW,228,1.0,3.0,43,0.00,,CLR,0.00,VWS V14.01,2013-07-29 17:30:00,
2013-07-29 12:36:00,92.4,66.7,30.00,NW,304,1.0,3.0,43,0.00,,CLR,0.00,VWS V14.01,2013-07-29 17:36:00,
2013-07-29 12:40:00,92.4,68.0,30.01,NW,326,1.0,4.0,45,0.00,,CLR,0.00,VWS V14.01,2013-07-29 17:40:00,
2013-07-29 12:41:00,92.7,66.3,30.00,NW,304,1.0,1.0,42,0.00,,CLR,0.00,VWS V14.01,2013-07-29 17:41:00,
2013-07-29 12:46:00,93.1,68.0,30.00,SSW,209,0.0,3.0,44,0.00,,CLR,0.00,VWS V14.01,2013-07-29 17:46:00,
2013-07-29 12:50:00,92.4,67.3,30.00,NW,304,0.0,3.0,44,0.00,,CLR,0.00,VWS V14.01,2013-07-29 17:50:00,
2013-07-29 12:52:00,93.3,66.8,30.00,North,355,0.0,4.0,42,0.00,,CLR,0.00,VWS V14.01,2013-07-29 17:52:00,
2013-07-29 12:57:00,93.3,67.5,30.00,WNW,302,1.0,1.0,43,0.00,,CLR,0.00,VWS V14.01,2013-07-29 17:57:00,
2013-07-29 13:00:00,93.1,66.6,30.00,SW,217,2.0,3.0,42,0.00,,CLR,0.00,VWS V14.01,2013-07-29 18:00:00,
2013-07-29 13:02:00,93.8,65.8,29.99,WNW,296,1.0,2.0,40,0.00,,CLR,0.00,VWS V14.01,2013-07-29 18:02:00,
2013-07-29 13:07:00,94.2,67.6,29.99,SW,216,1.0,2.0,42,0.00,,CLR,0.00,VWS V14.01,2013-07-29 18:07:00,
2013-07-29 13:10:00,93.3,67.5,30.00,SW,225,1.0,4.0,43,0.00,,CLR,0.00,VWS V14.01,2013-07-29 18:10:00,
2013-07-29 13:12:00,94.4,65.7,29.99,SSW,201,0.0,3.0,39,0.00,,CLR,0.00,VWS V14.01,2013-07-29 18:12:00,
2013-07-29 13:17:00,94.4,69.1,29.99,SE,146,0.0,0.0,44,0.00,,CLR,0.00,VWS V14.01,2013-07-29 18:17:00,
2013-07-29 13:20:00,94.2,69.0,29.99,South,180,0.0,4.0,44,0.00,,CLR,0.00,VWS V14.01,2013-07-29 18:20:00,
2013-07-29 13:23:00,94.6,65.1,29.99,NW,306,0.0,3.0,38,0.00,,CLR,0.00,VWS V14.01,2013-07-29 18:23:00,
2013-07-29 13:28:00,95.1,64.8,29.99,NW,307,1.0,2.0,37,0.00,,CLR,0.00,VWS V14.01,2013-07-29 18:28:00,
2013-07-29 13:30:00,94.4,67.1,29.99,SE,146,0.0,3.0,41,0.00,,CLR,0.00,VWS V14.01,2013-07-29 18:30:00,
2013-07-29 13:33:00,95.4,64.2,29.99,North,355,0.0,3.0,36,0.00,,CLR,0.00,VWS V14.01,2013-07-29 18:33:00,
2013-07-29 13:38:00,95.4,65.8,29.99,North,355,0.0,3.0,38,0.00,,CLR,0.00,VWS V14.01,2013-07-29 18:38:00,
2013-07-29 13:40:00,94.9,64.6,29.99,NW,307,0.0,3.0,37,0.00,,CLR,0.00,VWS V14.01,2013-07-29 18:40:00,
2013-07-29 13:43:00,95.6,66.0,29.99,SSW,198,0.0,5.0,38,0.00,,CLR,0.00,VWS V14.01,2013-07-29 18:43:00,
2013-07-29 13:48:00,95.6,62.8,29.98,ENE,57,0.0,1.0,34,0.00,,CLR,0.00,VWS V14.01,2013-07-29 18:48:00,
2013-07-29 13:50:00,95.4,65.8,29.99,North,355,0.0,3.0,38,0.00,,CLR,0.00,VWS V14.01,2013-07-29 18:50:00,
2013-07-29 13:53:00,95.8,65.4,29.98,NNE,22,4.0,5.0,37,0.00,,CLR,0.00,VWS V14.01,2013-07-29 18:53:00,
2013-07-29 13:59:00,96.3,62.5,29.98,SW,219,1.0,3.0,33,0.00,,CLR,0.00,VWS V14.01,2013-07-29 18:59:00,
2013-07-29 14:00:00,95.6,63.6,29.98,WSW,243,0.0,5.0,35,0.00,,CLR,0.00,VWS V14.01,2013-07-29 19:00:00,
2013-07-29 14:04:00,96.3,62.5,29.97,SW,220,1.0,3.0,33,0.00,,CLR,0.00,VWS V14.01,2013-07-29 19:04:00,
2013-07-29 14:09:00,96.6,63.7,29.97,WSW,246,0.0,2.0,34,0.00,,CLR,0.00,VWS V14.01,2013-07-29 19:09:00,
2013-07-29 14:10:00,96.1,63.2,29.98,NNE,22,0.0,5.0,34,0.00,,CLR,0.00,VWS V14.01,2013-07-29 19:10:00,
2013-07-29 14:15:00,96.8,65.5,29.97,ENE,68,0.0,2.0,36,0.00,,CLR,0.00,VWS V14.01,2013-07-29 19:15:00,
2013-07-29 14:20:00,97.0,65.6,29.97,WSW,241,0.0,1.0,36,0.00,,CLR,0.00,VWS V14.01,2013-07-29 19:20:00,
2013-07-29 14:25:00,97.5,62.7,29.97,NE,51,0.0,2.0,32,0.00,,CLR,0.00,VWS V14.01,2013-07-29 19:25:00,
2013-07-29 14:30:00,97.0,62.3,29.97,WSW,240,1.0,3.0,32,0.00,,CLR,0.00,VWS V14.01,2013-07-29 19:30:00,
2013-07-29 14:31:00,97.5,61.8,29.97,WNW,284,0.0,5.0,31,0.00,,CLR,0.00,VWS V14.01,2013-07-29 19:31:00,
2013-07-29 14:36:00,97.7,64.6,29.97,WNW,284,1.0,5.0,34,0.00,,CLR,0.00,VWS V14.01,2013-07-29 19:36:00,
2013-07-29 14:40:00,97.5,63.6,29.97,NE,53,0.0,4.0,33,0.00,,CLR,0.00,VWS V14.01,2013-07-29 19:40:00,
2013-07-29 14:41:00,97.7,65.4,29.97,SSW,196,0.0,3.0,35,0.00,,CLR,0.00,VWS V14.01,2013-07-29 19:41:00,
2013-07-29 14:46:00,97.5,61.8,29.97,SW,225,0.0,3.0,31,0.00,,CLR,0.00,VWS V14.01,2013-07-29 19:46:00,
2013-07-29 14:50:00,97.7,64.6,29.97,WNW,284,0.0,5.0,34,0.00,,CLR,0.00,VWS V14.01,2013-07-29 19:50:00,
2013-07-29 14:51:00,97.3,65.9,29.96,SW,225,0.0,1.0,36,0.00,,CLR,0.00,VWS V14.01,2013-07-29 19:51:00,
2013-07-29 14:56:00,97.3,65.1,29.96,WSW,238,1.0,5.0,35,0.00,,CLR,0.00,VWS V14.01,2013-07-29 19:56:00,
2013-07-29 15:00:00,97.5,63.6,29.96,SW,225,1.0,3.0,33,0.00,,CLR,0.00,VWS V14.01,2013-07-29 20:00:00,
2013-07-29 15:01:00,97.0,63.2,29.96,NNW,327,2.0,5.0,33,0.00,,CLR,0.00,VWS V14.01,2013-07-29 20:01:00,
2013-07-29 15:06:00,96.8,66.2,29.96,NW,325,0.0,5.0,37,0.00,,CLR,0.00,VWS V14.01,2013-07-29 20:06:00,
2013-07-29 15:10:00,97.3,63.4,29.96,West,265,0.0,6.0,33,0.00,,CLR,0.00,VWS V14.01,2013-07-29 20:10:00,
2013-07-29 15:12:00,96.8,64.7,29.96,South,184,2.0,3.0,35,0.00,,CLR,0.00,VWS V14.01,2013-07-29 20:12:00,
2013-07-29 15:17:00,96.8,62.1,29.95,West,260,1.0,2.0,32,0.00,,CLR,0.00,VWS V14.01,2013-07-29 20:17:00,
2013-07-29 15:20:00,96.8,65.5,29.96,NW,325,1.0,5.0,36,0.00,,CLR,0.00,VWS V14.01,2013-07-29 20:20:00,
2013-07-29 15:22:00,96.8,63.0,29.95,West,259,0.0,2.0,33,0.00,,CLR,0.00,VWS V14.01,2013-07-29 20:22:00,
2013-07-29 15:27:00,97.3,62.5,29.95,North,5,0.0,0.0,32,0.00,,CLR,0.00,VWS V14.01,2013-07-29 20:27:00,
2013-07-29 15:30:00,96.8,62.1,29.95,SW,221,2.0,3.0,32,0.00,,CLR,0.00,VWS V14.01,2013-07-29 20:30:00,
2013-07-29 15:32:00,97.5,63.6,29.95,North,5,0.0,2.0,33,0.00,,CLR,0.00,VWS V14.01,2013-07-29 20:32:00,
2013-07-29 15:38:00,97.7,61.0,29.95,NW,306,0.0,2.0,30,0.00,,CLR,0.00,VWS V14.01,2013-07-29 20:38:00,
2013-07-29 15:40:00,97.3,62.5,29.95,North,5,0.0,2.0,32,0.00,,CLR,0.00,VWS V14.01,2013-07-29 20:40:00,
2013-07-29 15:43:00,97.5,63.6,29.95,SW,216,0.0,3.0,33,0.00,,CLR,0.00,VWS V14.01,2013-07-29 20:43:00,
2013-07-29 15:48:00,97.5,66.1,29.95,SW,216,0.0,1.0,36,0.00,,CLR,0.00,VWS V14.01,2013-07-29 20:48:00,
2013-07-29 15:50:00,97.7,60.1,29.95,WNW,287,0.0,3.0,29,0.00,,CLR,0.00,VWS V14.01,2013-07-29 20:50:00,
2013-07-29 15:53:00,97.7,63.8,29.95,NNW,338,1.0,4.0,33,0.00,,CLR,0.00,VWS V14.01,2013-07-29 20:53:00,
2013-07-29 15:58:00,97.7,64.6,29.95,WSW,238,0.0,3.0,34,0.00,,CLR,0.00,VWS V14.01,2013-07-29 20:58:00,
2013-07-29 16:00:00,97.5,66.1,29.95,SW,216,0.0,3.0,36,0.00,,CLR,0.00,VWS V14.01,2013-07-29 21:00:00,
2013-07-29 16:03:00,97.7,63.8,29.94,West,270,2.0,3.0,33,0.00,,CLR,0.00,VWS V14.01,2013-07-29 21:03:00,
2013-07-29 16:09:00,97.7,63.8,29.94,NNW,332,0.0,2.0,33,0.00,,CLR,0.00,VWS V14.01,2013-07-29 21:09:00,
2013-07-29 16:10:00,97.7,61.0,29.95,West,260,1.0,6.0,30,0.00,,CLR,0.00,VWS V14.01,2013-07-29 21:10:00,
2013-07-29 16:14:00,97.7,63.8,29.94,NNW,329,2.0,2.0,33,0.00,,CLR,0.00,VWS V14.01,2013-07-29 21:14:00,
2013-07-29 16:19:00,97.5,64.4,29.94,NW,319,2.0,4.0,34,0.00,,CLR,0.00,VWS V14.01,2013-07-29 21:19:00,
2013-07-29 16:20:00,97.7,63.8,29.94,NNW,337,1.0,3.0,33,0.00,,CLR,0.00,VWS V14.01,2013-07-29 21:20:00,
2013-07-29 16:24:00,97.0,63.2,29.94,NW,319,1.0,4.0,33,0.00,,CLR,0.00,VWS V14.01,2013-07-29 21:24:00,
2013-07-29 16:29:00,96.6,65.3,29.94,West,261,0.0,2.0,36,0.00,,CLR,0.00,VWS V14.01,2013-07-29 21:29:00,
2013-07-29 16:30:00,97.5,64.4,29.94,NNW,329,0.0,2.0,34,0.00,,CLR,0.00,VWS V14.01,2013-07-29 21:30:00,
2013-07-29 16:35:00,96.3,65.0,29.93,SW,232,0.0,2.0,36,0.00,,CLR,0.00,VWS V14.01,2013-07-29 21:35:00,
2013-07-29 16:40:00,96.3,65.0,29.93,SW,232,0.0,1.0,36,0.00,,CLR,0.00,VWS V14.01,2013-07-29 21:40:00,
2013-07-29 16:45:00,96.1,64.0,29.93,SW,231,0.0,2.0,35,0.00,,CLR,0.00,VWS V14.01,2013-07-29 21:45:00,
2013-07-29 16:50:00,95.8,66.1,29.94,NW,326,0.0,2.0,38,0.00,,CLR,0.00,VWS V14.01,2013-07-29 21:50:00,
2013-07-29 16:55:00,95.8,66.1,29.94,NNE,13,0.0,3.0,38,0.00,,CLR,0.00,VWS V14.01,2013-07-29 21:55:00,
2013-07-29 17:00:00,95.8,64.6,29.93,NNE,13,0.0,1.0,36,0.00,,FEW070,0.00,VWS V14.01,2013-07-29 22:00:00,
2013-07-29 17:05:00,95.6,65.2,29.93,ENE,75,1.0,2.0,37,0.00,,FEW070,0.00,VWS V14.01,2013-07-29 22:05:00,
2013-07-29 17:10:00,95.4,65.8,29.93,SSE,158,0.0,4.0,38,0.00,,FEW070,0.00,VWS V14.01,2013-07-29 22:10:00,
2013-07-29 17:16:00,95.1,64.0,29.94,NNW,327,0.0,4.0,36,0.00,,FEW070,0.00,VWS V14.01,2013-07-29 22:16:00,
2013-07-29 17:20:00,95.6,65.2,29.93,ENE,75,0.0,2.0,37,0.00,,CLR,0.00,VWS V14.01,2013-07-29 22:20:00,
2013-07-29 17:22:00,94.9,63.8,29.94,ENE,70,0.0,3.0,36,0.00,,FEW070,0.00,VWS V14.01,2013-07-29 22:22:00,
2013-07-29 17:27:00,94.6,65.1,29.94,ENE,70,0.0,1.0,38,0.00,,FEW070,0.00,VWS V14.01,2013-07-29 22:27:00,
2013-07-29 17:30:00,95.1,64.0,29.94,NNW,327,0.0,4.0,36,0.00,,CLR,0.00,VWS V14.01,2013-07-29 22:30:00,
2013-07-29 17:33:00,94.6,64.3,29.94,North,360,0.0,4.0,37,0.00,,FEW070,0.00,VWS V14.01,2013-07-29 22:33:00,
2013-07-29 17:38:00,94.6,63.5,29.94,North,360,0.0,3.0,36,0.00,,FEW070,0.00,VWS V14.01,2013-07-29 22:38:00,
2013-07-29 17:40:00,94.6,65.1,29.94,ENE,70,0.0,3.0,38,0.00,,CLR,0.00,VWS V14.01,2013-07-29 22:40:00,
2013-07-29 17:43:00,94.4,62.5,29.94,North,360,1.0,3.0,35,0.00,,FEW070,0.00,VWS V14.01,2013-07-29 22:43:00,
2013-07-29 17:48:00,94.2,64.0,29.94,WNW,302,0.0,1.0,37,0.00,,FEW070,0.00,VWS V14.01,2013-07-29 22:48:00,
2013-07-29 17:50:00,94.6,63.5,29.94,North,360,2.0,4.0,36,0.00,,CLR,0.00,VWS V14.01,2013-07-29 22:50:00,
2013-07-29 17:53:00,93.8,63.6,29.94,West,279,0.0,2.0,37,0.00,,FEW070,0.00,VWS V14.01,2013-07-29 22:53:00,
2013-07-29 17:58:00,93.5,64.1,29.94,NNW,341,0.0,0.0,38,0.00,,FEW070,0.00,VWS V14.01,2013-07-29 22:58:00,
2013-07-29 18:00:00,94.2,63.2,29.94,WNW,302,0.0,4.0,36,0.00,,CLR,0.00,VWS V14.01,2013-07-29 23:00:00,
2013-07-29 18:03:00,93.3,62.4,29.94,NW,326,0.0,3.0,36,0.00,,CLR,0.00,VWS V14.01,2013-07-29 23:03:00,
2013-07-29 18:09:00,92.9,61.2,29.94,NW,314,0.0,2.0,35,0.00,,CLR,0.00,VWS V14.01,2013-07-29 23:09:00,
2013-07-29 18:10:00,93.5,64.8,29.94,NNW,341,0.0,3.0,39,0.00,,CLR,0.00,VWS V14.01,2013-07-29 23:10:00,
2013-07-29 18:14:00,92.7,61.1,29.94,WNW,300,0.0,3.0,35,0.00,,CLR,0.00,VWS V14.01,2013-07-29 23:14:00,
2013-07-29 18:19:00,92.4,62.4,29.94,SSW,211,2.0,2.0,37,0.00,,CLR,0.00,VWS V14.01,2013-07-29 23:19:00,
2013-07-29 18:20:00,93.1,63.0,29.94,NW,314,1.0,3.0,37,0.00,,CLR,0.00,VWS V14.01,2013-07-29 23:20:00,
2013-07-29 18:25:00,92.2,61.4,29.94,SSW,194,0.0,5.0,36,0.00,,CLR,0.00,VWS V14.01,2013-07-29 23:25:00,
2013-07-29 18:30:00,92.0,62.0,29.94,WSW,246,0.0,2.0,37,0.00,,CLR,0.00,VWS V14.01,2013-07-29 23:30:00,
2013-07-29 18:35:00,91.8,61.1,29.94,WSW,246,0.0,2.0,36,0.00,,CLR,0.00,VWS V14.01,2013-07-29 23:35:00,
2013-07-29 18:40:00,91.8,62.6,29.94,WSW,238,2.0,6.0,38,0.00,,CLR,0.00,VWS V14.01,2013-07-29 23:40:00,
2013-07-29 18:45:00,91.8,63.3,29.94,North,349,0.0,6.0,39,0.00,,CLR,0.00,VWS V14.01,2013-07-29 23:45:00,
2013-07-29 18:50:00,91.6,64.6,29.94,West,260,0.0,5.0,41,0.00,,CLR,0.00,VWS V14.01,2013-07-29 23:50:00,
2013-07-29 18:56:00,91.6,64.6,29.94,WNW,294,0.0,5.0,41,0.00,,CLR,0.00,VWS V14.01,2013-07-29 23:56:00,
2013-07-29 19:00:00,91.8,64.1,29.94,North,349,0.0,6.0,40,0.00,,CLR,0.00,VWS V14.01,2013-07-30 00:00:00,
2013-07-29 19:01:00,91.1,64.8,29.94,WNW,295,0.0,0.0,42,0.00,,CLR,0.00,VWS V14.01,2013-07-30 00:01:00,
2013-07-29 19:06:00,90.9,65.3,29.94,WNW,303,3.0,3.0,43,0.00,,CLR,0.00,VWS V14.01,2013-07-30 00:06:00,
2013-07-29 19:10:00,91.3,65.0,29.94,WNW,294,0.0,5.0,42,0.00,,CLR,0.00,VWS V14.01,2013-07-30 00:10:00,
2013-07-29 19:11:00,90.7,65.8,29.94,WNW,295,0.0,2.0,44,0.00,,CLR,0.00,VWS V14.01,2013-07-30 00:11:00,
2013-07-29 19:16:00,90.5,66.3,29.94,WNW,295,0.0,2.0,45,0.00,,CLR,0.00,VWS V14.01,2013-07-30 00:16:00,
2013-07-29 19:20:00,90.9,65.3,29.94,WNW,303,0.0,3.0,43,0.00,,CLR,0.00,VWS V14.01,2013-07-30 00:20:00,
2013-07-29 19:21:00,90.2,66.6,29.95,WNW,295,0.0,1.0,46,0.00,,CLR,0.00,VWS V14.01,2013-07-30 00:21:00,
2013-07-29 19:26:00,89.8,66.3,29.95,WNW,295,0.0,1.0,46,0.00,,CLR,0.00,VWS V14.01,2013-07-30 00:26:00,
2013-07-29 19:30:00,90.5,66.9,29.95,WNW,295,0.0,2.0,46,0.00,,CLR,0.00,VWS V14.01,2013-07-30 00:30:00,
2013-07-29 19:31:00,89.6,66.7,29.95,WNW,295,0.0,1.0,47,0.00,,CLR,0.00,VWS V14.01,2013-07-30 00:31:00,
2013-07-29 19:37:00,89.2,66.3,29.95,WNW,295,0.0,1.0,47,0.00,,CLR,0.00,VWS V14.01,2013-07-30 00:37:00,
2013-07-29 19:40:00,89.8,66.3,29.95,WNW,295,0.0,1.0,46,0.00,,CLR,0.00,VWS V14.01,2013-07-30 00:40:00,
2013-07-29 19:42:00,89.0,66.8,29.95,WNW,295,0.0,1.0,48,0.00,,CLR,0.00,VWS V14.01,2013-07-30 00:42:00,
2013-07-29 19:47:00,88.8,67.2,29.95,WNW,295,0.0,1.0,49,0.00,,CLR,0.00,VWS V14.01,2013-07-30 00:47:00,
2013-07-29 19:50:00,89.2,67.0,29.95,WNW,295,0.0,1.0,48,0.00,,CLR,0.00,VWS V14.01,2013-07-30 00:50:00,
2013-07-29 19:52:00,88.5,66.9,29.95,WNW,295,0.0,2.0,49,0.00,,CLR,0.00,VWS V14.01,2013-07-30 00:52:00,
2013-07-29 19:57:00,88.1,66.6,29.95,NW,319,0.0,0.0,49,0.00,,CLR,0.00,VWS V14.01,2013-07-30 00:57:00,
2013-07-29 20:00:00,88.8,67.2,29.95,WNW,295,1.0,1.0,49,0.00,,CLR,0.00,VWS V14.01,2013-07-30 01:00:00,
2013-07-29 20:02:00,87.9,67.5,29.95,NW,317,0.0,1.0,51,0.00,,CLR,0.00,VWS V14.01,2013-07-30 01:02:00,
2013-07-29 20:08:00,87.7,67.9,29.95,NW,315,3.0,3.0,52,0.00,,CLR,0.00,VWS V14.01,2013-07-30 01:08:00,
2013-07-29 20:10:00,88.1,66.6,29.95,NW,319,0.0,3.0,49,0.00,,CLR,0.00,VWS V14.01,2013-07-30 01:10:00,
2013-07-29 20:13:00,87.5,68.3,29.95,NW,315,0.0,4.0,53,0.00,,CLR,0.00,VWS V14.01,2013-07-30 01:13:00,
2013-07-29 20:18:00,87.3,68.1,29.96,NW,315,0.0,0.0,53,0.00,,CLR,0.00,VWS V14.01,2013-07-30 01:18:00,
2013-07-29 20:20:00,87.7,67.3,29.95,NW,317,0.0,1.0,51,0.00,,CLR,0.00,VWS V14.01,2013-07-30 01:20:00,
2013-07-29 20:23:00,86.9,67.7,29.96,NW,315,0.0,0.0,53,0.00,,CLR,0.00,VWS V14.01,2013-07-30 01:23:00,
2013-07-29 20:28:00,86.7,68.1,29.96,NW,315,1.0,2.0,54,0.00,,CLR,0.00,VWS V14.01,2013-07-30 01:28:00,
2013-07-29 20:30:00,87.3,68.1,29.96,NW,315,0.0,4.0,53,0.00,,CLR,0.00,VWS V14.01,2013-07-30 01:30:00,
2013-07-29 20:33:00,86.5,68.4,29.97,NW,315,0.0,2.0,55,0.00,,CLR,0.00,VWS V14.01,2013-07-30 01:33:00,
2013-07-29 20:38:00,86.2,68.2,29.97,NW,315,0.0,0.0,55,0.00,,CLR,0.00,VWS V14.01,2013-07-30 01:38:00,
2013-07-29 20:40:00,86.7,68.1,29.96,NW,315,0.0,0.0,54,0.00,,CLR,0.00,VWS V14.01,2013-07-30 01:40:00,
2013-07-29 20:43:00,85.8,68.3,29.97,NW,315,0.0,0.0,56,0.00,,CLR,0.00,VWS V14.01,2013-07-30 01:43:00,
2013-07-29 20:49:00,85.6,68.6,29.97,NW,315,0.0,0.0,57,0.00,,CLR,0.00,VWS V14.01,2013-07-30 01:49:00,
2013-07-29 20:50:00,86.2,68.2,29.97,NW,315,0.0,2.0,55,0.00,,CLR,0.00,VWS V14.01,2013-07-30 01:50:00,
2013-07-29 20:54:00,85.4,69.0,29.97,NW,315,0.0,1.0,58,0.00,,CLR,0.00,VWS V14.01,2013-07-30 01:54:00,
2013-07-29 20:59:00,85.2,68.8,29.97,NW,315,0.0,0.0,58,0.00,,CLR,0.00,VWS V14.01,2013-07-30 01:59:00,
2013-07-29 21:00:00,85.8,68.3,29.97,NW,315,0.0,1.0,56,0.00,,CLR,0.00,VWS V14.01,2013-07-30 02:00:00,
2013-07-29 21:05:00,85.0,69.1,29.98,NNW,328,0.0,3.0,59,0.00,,CLR,0.00,VWS V14.01,2013-07-30 02:05:00,
2013-07-29 21:10:00,84.8,69.4,29.98,NNW,327,0.0,2.0,60,0.00,,CLR,0.00,VWS V14.01,2013-07-30 02:10:00,
2013-07-29 21:16:00,84.6,69.7,29.99,NNW,342,0.0,2.0,61,0.00,,CLR,0.00,VWS V14.01,2013-07-30 02:16:00,
2013-07-29 21:20:00,84.8,69.4,29.98,NNW,328,0.0,3.0,60,0.00,,CLR,0.00,VWS V14.01,2013-07-30 02:20:00,
2013-07-29 21:21:00,84.4,69.5,29.99,NNW,347,0.0,1.0,61,0.00,,CLR,0.00,VWS V14.01,2013-07-30 02:21:00,
2013-07-29 21:26:00,84.2,69.3,29.99,WNW,293,0.0,4.0,61,0.00,,CLR,0.00,VWS V14.01,2013-07-30 02:26:00,
2013-07-29 21:30:00,84.6,69.7,29.99,NNW,342,0.0,2.0,61,0.00,,CLR,0.00,VWS V14.01,2013-07-30 02:30:00,
2013-07-29 21:32:00,84.0,69.6,30.00,North,5,0.0,5.0,62,0.00,,CLR,0.00,VWS V14.01,2013-07-30 02:32:00,
2013-07-29 21:37:00,83.8,69.4,30.00,North,5,0.0,5.0,62,0.00,,CLR,0.00,VWS V14.01,2013-07-30 02:37:00,
2013-07-29 21:40:00,84.2,69.3,29.99,WNW,293,0.0,4.0,61,0.00,,CLR,0.00,VWS V14.01,2013-07-30 02:40:00,
2013-07-29 21:42:00,83.6,69.2,30.00,West,266,0.0,5.0,62,0.00,,CLR,0.00,VWS V14.01,2013-07-30 02:42:00,
2013-07-29 21:47:00,83.5,69.6,30.01,North,355,0.0,1.0,63,0.00,,CLR,0.00,VWS V14.01,2013-07-30 02:47:00,
2013-07-29 21:50:00,83.8,69.4,30.00,North,5,1.0,5.0,62,0.00,,CLR,0.00,VWS V14.01,2013-07-30 02:50:00,
2013-07-29 21:52:00,83.3,69.4,30.01,WNW,293,0.0,3.0,63,0.00,,CLR,0.00,VWS V14.01,2013-07-30 02:52:00,
2013-07-29 21:57:00,83.1,69.2,30.01,WNW,293,0.0,0.0,63,0.00,,CLR,0.00,VWS V14.01,2013-07-30 02:57:00,
2013-07-29 22:00:00,83.5,69.1,30.01,North,355,0.0,5.0,62,0.00,,CLR,0.00,VWS V14.01,2013-07-30 03:00:00,
2013-07-29 22:02:00,82.9,69.5,30.02,WNW,293,0.0,0.0,64,0.00,,CLR,0.00,VWS V14.01,2013-07-30 03:02:00,
2013-07-29 22:08:00,82.7,69.3,30.02,WNW,293,0.0,0.0,64,0.00,,CLR,0.00,VWS V14.01,2013-07-30 03:08:00,
2013-07-29 22:10:00,83.3,69.4,30.01,WNW,293,0.0,3.0,63,0.00,,CLR,0.00,VWS V14.01,2013-07-30 03:10:00,
2013-07-29 22:13:00,82.5,69.1,30.02,WNW,293,0.0,0.0,64,0.00,,CLR,0.00,VWS V14.01,2013-07-30 03:13:00,
2013-07-29 22:18:00,82.3,69.4,30.03,WNW,293,0.0,0.0,65,0.00,,CLR,0.00,VWS V14.01,2013-07-30 03:18:00,
2013-07-29 22:20:00,82.7,69.3,30.02,WNW,293,0.0,0.0,64,0.00,,CLR,0.00,VWS V14.01,2013-07-30 03:20:00,
2013-07-29 22:23:00,82.1,69.6,30.03,WNW,293,0.0,2.0,66,0.00,,CLR,0.00,VWS V14.01,2013-07-30 03:23:00,
2013-07-29 22:29:00,81.9,69.4,30.03,WNW,293,0.0,0.0,66,0.00,,CLR,0.00,VWS V14.01,2013-07-30 03:29:00,
2013-07-29 22:30:00,82.3,69.4,30.03,WNW,293,0.0,0.0,65,0.00,,CLR,0.00,VWS V14.01,2013-07-30 03:30:00,
2013-07-29 22:34:00,81.7,69.7,30.03,WNW,293,0.0,0.0,67,0.00,,CLR,0.00,VWS V14.01,2013-07-30 03:34:00,
2013-07-29 22:39:00,81.5,69.9,30.03,WNW,293,0.0,0.0,68,0.00,,CLR,0.00,VWS V14.01,2013-07-30 03:39:00,
2013-07-29 22:40:00,81.9,69.4,30.03,WNW,293,0.0,2.0,66,0.00,,CLR,0.00,VWS V14.01,2013-07-30 03:40:00,
2013-07-29 22:44:00,81.3,70.2,30.03,WNW,293,0.0,0.0,69,0.00,,CLR,0.00,VWS V14.01,2013-07-30 03:44:00,
2013-07-29 22:49:00,81.1,70.0,30.04,WNW,293,0.0,0.0,69,0.00,,CLR,0.00,VWS V14.01,2013-07-30 03:49:00,
2013-07-29 22:50:00,81.5,69.5,30.03,WNW,293,0.0,1.0,67,0.00,,CLR,0.00,VWS V14.01,2013-07-30 03:50:00,
2013-07-29 22:54:00,80.9,70.2,30.04,SW,234,0.0,6.0,70,0.00,,CLR,0.00,VWS V14.01,2013-07-30 03:54:00,
2013-07-29 22:59:00,80.9,70.2,30.04,SW,234,0.0,0.0,70,0.00,,CLR,0.00,VWS V14.01,2013-07-30 03:59:00,
2013-07-29 23:00:00,81.3,70.2,30.04,WNW,293,0.0,0.0,69,0.00,,CLR,0.00,VWS V14.01,2013-07-30 04:00:00,
2013-07-29 23:01:00,80.7,70.0,30.04,SW,234,0.0,0.0,70,0.00,,CLR,0.00,VWS V14.01,2013-07-30 04:01:00,
2013-07-29 23:06:00,80.6,70.3,30.04,SW,234,0.0,0.0,71,0.00,,CLR,0.00,VWS V14.01,2013-07-30 04:06:00,
2013-07-29 23:10:00,80.9,70.2,30.04,SW,234,0.0,6.0,70,0.00,,CLR,0.00,VWS V14.01,2013-07-30 04:10:00,
2013-07-29 23:11:00,80.6,70.3,30.04,West,262,0.0,1.0,71,0.00,,CLR,0.00,VWS V14.01,2013-07-30 04:11:00,
2013-07-29 23:16:00,80.4,70.6,30.04,SSW,213,0.0,2.0,72,0.00,,CLR,0.00,VWS V14.01,2013-07-30 04:16:00,
2013-07-29 23:20:00,80.6,70.3,30.04,SW,234,0.0,0.0,71,0.00,,CLR,0.00,VWS V14.01,2013-07-30 04:20:00,
2013-07-29 23:21:00,80.2,70.8,30.04,SSW,213,0.0,0.0,73,0.00,,CLR,0.00,VWS V14.01,2013-07-30 04:21:00,
2013-07-29 23:26:00,80.0,70.6,30.04,WNW,292,0.0,3.0,73,0.00,,CLR,0.00,VWS V14.01,2013-07-30 04:26:00,
2013-07-29 23:30:00,80.4,70.6,30.04,SSW,213,0.0,2.0,72,0.00,,CLR,0.00,VWS V14.01,2013-07-30 04:30:00,
2013-07-29 23:32:00,79.8,70.4,30.04,WNW,291,0.0,1.0,73,0.00,,CLR,0.00,VWS V14.01,2013-07-30 04:32:00,
2013-07-29 23:37:00,79.8,70.8,30.04,WNW,290,0.0,0.0,74,0.00,,CLR,0.00,VWS V14.01,2013-07-30 04:37:00,
2013-07-29 23:40:00,80.0,70.6,30.04,WNW,292,0.0,3.0,73,0.00,,CLR,0.00,VWS V14.01,2013-07-30 04:40:00,
2013-07-29 23:42:00,79.6,70.6,30.04,WNW,290,0.0,0.0,74,0.00,,CLR,0.00,VWS V14.01,2013-07-30 04:42:00,
2013-07-29 23:47:00,79.4,70.8,30.03,WNW,290,0.0,0.0,75,0.00,,CLR,0.00,VWS V14.01,2013-07-30 04:47:00,
2013-07-29 23:50:00,79.8,70.8,30.04,WNW,290,0.0,1.0,74,0.00,,CLR,0.00,VWS V14.01,2013-07-30 04:50:00,
2013-07-29 23:52:00,79.4,70.8,30.03,WNW,290,0.0,1.0,75,0.00,,CLR,0.00,VWS V14.01,2013-07-30 04:52:00,
2013-07-29 23:57:00,79.3,70.7,30.03,WSW,241,0.0,0.0,75,0.00,,CLR,0.00,VWS V14.01,2013-07-30 04:57:00,